Location: Albany
(35.0170°S, 117.8920°E)
Time: 02:53:32
(UTC+08:00)

Vanguard 1 - Pass Details

Date: 02 February 2021
Orbit: 649 x 3833 km, 34.2° (Epoch: 26 February)

Event Time Altitude Azimuth Distance (km) Brightness Sun altitude
Rises 19:32:04 0° 333° (NNW) 7,491 14.6 -4.1°
Reaches altitude 10° 19:39:06 10° 344° (NNW) 6,006 14.0 -5.4°
Maximum altitude 19:51:16 24° 29° (NNE) 3,841 12.6 -7.6°
Drops below altitude 10° 19:59:28 10° 78° (ENE) 3,951 12.5 -9.1°
Enters shadow 20:00:03 - 80° (E) 4,033 12.6 -9.2°
Sets 20:02:48 0° 92° (E) 4,530 - -9.7°
